Satellite: HRBE Catalog number: 37855 Epoch time: 15014.86951464 Element set: 35 Inclination: 101.7102 deg RA of node: 152.6527 deg Eccentricity: 0.0203747 Arg of perigee: 160.9098 deg Mean anomaly: 199.9887 deg Mean motion: 14.94225532 rev/day Decay rate: 1.6205e-04 rev/day^2 Epoch rev: 17423 Checksum: 312
Satellite: RS-39 Catalog number: 38051 Epoch time: 14288.65876392 Element set: 41 Inclination: 051.5964 deg RA of node: 324.1908 deg Eccentricity: 0.0006422 Arg of perigee: 269.6897 deg Mean anomaly: 186.8903 deg Mean motion: 16.43533377 rev/day Decay rate: 7.0201582e-01 rev/day^2 Epoch rev: 15308 Checksum: 345
Satellite: E-STAR Catalog number: 38079 Epoch time: 15015.82880555 Element set: 213 Inclination: 069.4080 deg RA of node: 126.0505 deg Eccentricity: 0.0028552 Arg of perigee: 030.9863 deg Mean anomaly: 329.3018 deg Mean motion: 16.33522890 rev/day Decay rate: 7.422306e-02 rev/day^2 Epoch rev: 15614 Checksum: 295
Satellite: GOLIAT Catalog number: 38085 Epoch time: 15015.80341648 Element set: 725 Inclination: 069.4276 deg RA of node: 142.9485 deg Eccentricity: 0.0158213 Arg of perigee: 041.6402 deg Mean anomaly: 113.4533 deg Mean motion: 15.70832907 rev/day Decay rate: 3.71813e-03 rev/day^2 Epoch rev: 15571 Checksum: 298
Satellite: HORYU-2 Catalog number: 38340 Epoch time: 15014.90064596 Element set: 70 Inclination: 098.2932 deg RA of node: 341.1401 deg Eccentricity: 0.0011171 Arg of perigee: 218.8642 deg Mean anomaly: 141.1763 deg Mean motion: 14.73587362 rev/day Decay rate: 2.421e-05 rev/day^2 Epoch rev: 14295 Checksum: 274
Satellite: RS-40 Catalog number: 38735 Epoch time: 15015.77218009 Element set: 949 Inclination: 082.4762 deg RA of node: 155.0069 deg Eccentricity: 0.0017458 Arg of perigee: 151.7543 deg Mean anomaly: 208.4485 deg Mean motion: 12.42566492 rev/day Decay rate: 4.0e-07 rev/day^2 Epoch rev: 11198 Checksum: 311
Satellite: PROITERES Catalog number: 38756 Epoch time: 15015.83719598 Element set: 593 Inclination: 098.2214 deg RA of node: 112.6155 deg Eccentricity: 0.0013398 Arg of perigee: 066.9196 deg Mean anomaly: 293.3412 deg Mean motion: 14.75481629 rev/day Decay rate: 1.324e-05 rev/day^2 Epoch rev: 12653 Checksum: 322
Satellite: BEESAT-3 Catalog number: 39134 Epoch time: 15015.83672701 Element set: 826 Inclination: 064.8727 deg RA of node: 183.9034 deg Eccentricity: 0.0035291 Arg of perigee: 272.7074 deg Mean anomaly: 087.0516 deg Mean motion: 15.09183627 rev/day Decay rate: 1.1947e-04 rev/day^2 Epoch rev: 9568 Checksum: 323
Satellite: BEESAT-2 Catalog number: 39136 Epoch time: 15014.88807805 Element set: 799 Inclination: 064.8731 deg RA of node: 188.2507 deg Eccentricity: 0.0035860 Arg of perigee: 273.0520 deg Mean anomaly: 086.6498 deg Mean motion: 15.08011096 rev/day Decay rate: 9.895e-05 rev/day^2 Epoch rev: 9552 Checksum: 338
Satellite: LO-75 Catalog number: 39382 Epoch time: 14295.69194059 Element set: 487 Inclination: 040.4713 deg RA of node: 030.2705 deg Eccentricity: 0.0002289 Arg of perigee: 341.7175 deg Mean anomaly: 018.4586 deg Mean motion: 16.19795749 rev/day Decay rate: 7.301741e-02 rev/day^2 Epoch rev: 47082 Checksum: 345
Satellite: ZACUBE-1 Catalog number: 39417 Epoch time: 15014.66487691 Element set: 514 Inclination: 097.7515 deg RA of node: 082.8500 deg Eccentricity: 0.0059801 Arg of perigee: 276.2875 deg Mean anomaly: 083.1528 deg Mean motion: 14.79062189 rev/day Decay rate: 2.257e-05 rev/day^2 Epoch rev: 6193 Checksum: 328
Satellite: TRITON-1 Catalog number: 39427 Epoch time: 15014.81796310 Element set: 366 Inclination: 097.7375 deg RA of node: 074.4652 deg Eccentricity: 0.0115440 Arg of perigee: 296.6527 deg Mean anomaly: 062.2893 deg Mean motion: 14.66139677 rev/day Decay rate: 1.462e-05 rev/day^2 Epoch rev: 6138 Checksum: 325
Satellite: DELFIN3XT Catalog number: 39428 Epoch time: 15014.60569156 Element set: 369 Inclination: 097.7380 deg RA of node: 072.8911 deg Eccentricity: 0.0124830 Arg of perigee: 301.2200 deg Mean anomaly: 057.6820 deg Mean motion: 14.64525603 rev/day Decay rate: 3.231e-05 rev/day^2 Epoch rev: 6125 Checksum: 279
Satellite: GOMX-1 Catalog number: 39430 Epoch time: 15015.70118785 Element set: 166 Inclination: 097.7304 deg RA of node: 069.6937 deg Eccentricity: 0.0154160 Arg of perigee: 310.2641 deg Mean anomaly: 048.5157 deg Mean motion: 14.57560062 rev/day Decay rate: 1.832e-05 rev/day^2 Epoch rev: 6116 Checksum: 289
Satellite: MO-76 Catalog number: 39436 Epoch time: 15015.44874611 Element set: 468 Inclination: 097.7585 deg RA of node: 091.5546 deg Eccentricity: 0.0022583 Arg of perigee: 263.7294 deg Mean anomaly: 096.1356 deg Mean motion: 14.98592169 rev/day Decay rate: 2.7040e-04 rev/day^2 Epoch rev: 6255 Checksum: 350
Satellite: LO-74 Catalog number: 39440 Epoch time: 15014.81104803 Element set: 361 Inclination: 097.7468 deg RA of node: 079.6105 deg Eccentricity: 0.0081616 Arg of perigee: 283.2716 deg Mean anomaly: 075.9400 deg Mean motion: 14.73927163 rev/day Decay rate: 2.236e-05 rev/day^2 Epoch rev: 6173 Checksum: 304
Satellite: PUCPSAT-1 Catalog number: 39442 Epoch time: 15015.45000064 Element set: 363 Inclination: 097.7581 deg RA of node: 088.9465 deg Eccentricity: 0.0032530 Arg of perigee: 266.7051 deg Mean anomaly: 093.0444 deg Mean motion: 14.87561580 rev/day Decay rate: 4.224e-05 rev/day^2 Epoch rev: 6115 Checksum: 286
Satellite: SHINAISAT Catalog number: 39572 Epoch time: 14328.13084988 Element set: 447 Inclination: 064.9728 deg RA of node: 197.0096 deg Eccentricity: 0.0013534 Arg of perigee: 259.7861 deg Mean anomaly: 100.1802 deg Mean motion: 16.45181032 rev/day Decay rate: 2.8848087e-01 rev/day^2 Epoch rev: 4240 Checksum: 324
Satellite: TEIKYOSAT Catalog number: 39576 Epoch time: 14297.85867254 Element set: 437 Inclination: 064.9818 deg RA of node: 300.5833 deg Eccentricity: 0.0008491 Arg of perigee: 317.3597 deg Mean anomaly: 044.3862 deg Mean motion: 16.45008906 rev/day Decay rate: 9.345816e-02 rev/day^2 Epoch rev: 3769 Checksum: 359
Satellite: CO-77 Catalog number: 39577 Epoch time: 14244.78324653 Element set: 379 Inclination: 064.9920 deg RA of node: 123.7668 deg Eccentricity: 0.0014904 Arg of perigee: 269.7208 deg Mean anomaly: 091.1897 deg Mean motion: 16.43552757 rev/day Decay rate: 1.0543803e-01 rev/day^2 Epoch rev: 2938 Checksum: 363
Satellite: SPROUT Catalog number: 39770 Epoch time: 15015.75554182 Element set: 253 Inclination: 097.8710 deg RA of node: 114.7417 deg Eccentricity: 0.0009635 Arg of perigee: 346.9041 deg Mean anomaly: 013.1935 deg Mean motion: 14.83322155 rev/day Decay rate: 1.693e-05 rev/day^2 Epoch rev: 3503 Checksum: 286
Satellite: POPSAT-HIP1 Catalog number: 40028 Epoch time: 15015.80448000 Element set: 641 Inclination: 097.9688 deg RA of node: 275.8424 deg Eccentricity: 0.0014242 Arg of perigee: 326.5288 deg Mean anomaly: 033.5033 deg Mean motion: 14.86208911 rev/day Decay rate: 3.276e-05 rev/day^2 Epoch rev: 3114 Checksum: 281
Satellite: EO-80 Catalog number: 40032 Epoch time: 15015.77095986 Element set: 621 Inclination: 097.9631 deg RA of node: 275.6278 deg Eccentricity: 0.0011937 Arg of perigee: 321.8839 deg Mean anomaly: 038.1527 deg Mean motion: 14.85945811 rev/day Decay rate: 3.477e-05 rev/day^2 Epoch rev: 3114 Checksum: 327
Satellite: VELOX-1 Catalog number: 40057 Epoch time: 15015.88644518 Element set: 633 Inclination: 098.2318 deg RA of node: 091.4825 deg Eccentricity: 0.0011737 Arg of perigee: 010.8642 deg Mean anomaly: 349.2798 deg Mean motion: 14.75039936 rev/day Decay rate: 3.022e-05 rev/day^2 Epoch rev: 2942 Checksum: 307
Satellite: DAURIA DX 1 Catalog number: 40071 Epoch time: 15015.89595341 Element set: 603 Inclination: 098.3773 deg RA of node: 080.9443 deg Eccentricity: 0.0009138 Arg of perigee: 015.6526 deg Mean anomaly: 344.4946 deg Mean motion: 14.80013253 rev/day Decay rate: 1.423e-05 rev/day^2 Epoch rev: 2826 Checksum: 286
Satellite: UKUBE-1 Catalog number: 40074 Epoch time: 15015.82674883 Element set: 604 Inclination: 098.3784 deg RA of node: 081.2240 deg Eccentricity: 0.0005376 Arg of perigee: 027.5851 deg Mean anomaly: 332.5634 deg Mean motion: 14.81398587 rev/day Decay rate: 2.922e-05 rev/day^2 Epoch rev: 2827 Checksum: 312
Satellite: CHASQUI-1 Catalog number: 40117 Epoch time: 15014.73322295 Element set: 472 Inclination: 051.6189 deg RA of node: 112.4445 deg Eccentricity: 0.0004239 Arg of perigee: 337.2783 deg Mean anomaly: 022.7551 deg Mean motion: 16.34635278 rev/day Decay rate: 7.508583e-02 rev/day^2 Epoch rev: 2336 Checksum: 296
Satellite: HODOYOSHI-1 Catalog number: 40299 Epoch time: 15015.88100491 Element set: 218 Inclination: 097.4683 deg RA of node: 099.3795 deg Eccentricity: 0.0012474 Arg of perigee: 308.7039 deg Mean anomaly: 185.9670 deg Mean motion: 15.17839207 rev/day Decay rate: 5.189e-05 rev/day^2 Epoch rev: 1069 Checksum: 333
Satellite: CHUBUSAT-1 Catalog number: 40300 Epoch time: 15015.91008193 Element set: 219 Inclination: 097.4659 deg RA of node: 099.1663 deg Eccentricity: 0.0022184 Arg of perigee: 305.9781 deg Mean anomaly: 176.4785 deg Mean motion: 15.15823878 rev/day Decay rate: 6.480e-05 rev/day^2 Epoch rev: 1069 Checksum: 316
Satellite: QSAT-EOS Catalog number: 40301 Epoch time: 15015.88256174 Element set: 234 Inclination: 097.4632 deg RA of node: 098.8603 deg Eccentricity: 0.0033440 Arg of perigee: 304.5061 deg Mean anomaly: 146.8798 deg Mean motion: 15.13794148 rev/day Decay rate: 1.1105e-04 rev/day^2 Epoch rev: 1067 Checksum: 284
Satellite: TSUBAME Catalog number: 40302 Epoch time: 15015.87228259 Element set: 227 Inclination: 097.4603 deg RA of node: 098.5652 deg Eccentricity: 0.0043764 Arg of perigee: 305.3667 deg Mean anomaly: 191.8506 deg Mean motion: 15.11091480 rev/day Decay rate: 6.780e-05 rev/day^2 Epoch rev: 1064 Checksum: 293
/EX
participants (1)
-
Ray Hoad